Content
SEND FEEDBACK

Daily
Averages
Monthly
Summary
Mexico

CHETUMAL - AIRPORT, QUINTANA ROO


Home > North America > Mexico > Quintana Roo
Elevation: 36 feet     Latitude: 18 30N     Longitude: 088 19W

WEATHER
 
SELECT A DAY
Number of Records: 124,358;   Date Range: 1/1/95 - 10/1/14
 
SHARE

PRINT THIS DATA

[ ← Previous Day ]
WEATHER ALMANAC - MAY 13, 2014
[ Next Day → ]
[ °C ]   °F
Weather ElementAverageHighLow
Temperature84.2 °F90 °F (12:50 pm)80 °F (3:50 am)
Dewpoint75 °F78.8 °F (11:46 am)70 °F (6:50 pm)
Humidity71.9 %79 % (8:42 am)50 % (12:50 pm)
Barometer29.83 in29.89 in (9:50 am)29.78 in (6:03 pm)
Wind Speed9.2 mph17.3 mph (9:43 am)
Weather ElementAverage
Visibility6.6 mi
Wind DirectionESE (108.6 °)

Weather ElementTotal
Precipitation---
Cooling Degree Days20 (Base 65)
Growing Degree Days35 (Base 50)
Averaged from 21 records on May 13, 2014
WEATHER CONDITIONS BREAKOUT
WIND DIRECTION BREAKOUT
WEATHER BY HOUR - MAY 13, 2014
[ °C ]   °F
Local TimeTemperatureDewpointHumidityBarometerVisibilityWind DirectionWind SpeedGust SpeedPrecipitationEventsConditions
3:50 AM80.0 °F73.0 °F73 %29.82 in5.0 miEast (90°)4.5 mphScattered Clouds
6:02 AM80.6 °F71.6 °F74 %29.82 in7.0 miEast (90°)9.2 mphMostly Cloudy
6:42 AM80.6 °F71.6 °F74 %29.83 in7.0 miEast (90°)5.8 mphMostly Cloudy
6:50 AM80.0 °F73.0 °F75 %29.85 in6.0 miEast (90°)4.5 mphPartly Cloudy
8:42 AM82.4 °F75.2 °F79 %29.85 in7.0 miEast (100°)5.8 mphMostly Cloudy
9:43 AM84.2 °F77.0 °F79 %29.88 in7.0 miEast (100°)17.3 mphMostly Cloudy
9:50 AM87.0 °F73.0 °F56 %29.89 in6.0 miEast (90°)6.7 mphScattered Clouds
10:40 AM84.2 °F77.0 °F79 %29.87 in7.0 miESE (120°)17.3 mphScattered Clouds
11:46 AM86.0 °F78.8 °F79 %29.88 in7.0 miESE (120°)9.2 mphScattered Clouds
12:40 PM86.0 °F78.8 °F79 %29.87 in7.0 miESE (120°)11.5 mphScattered Clouds
12:50 PM90.0 °F74.0 °F50 %29.88 in6.0 miESE (120°)6.7 mphScattered Clouds
1:42 PM86.0 °F78.8 °F79 %29.84 in7.0 miSE (130°)11.5 mphScattered Clouds
2:44 PM86.0 °F77.0 °F74 %29.81 in7.0 miSE (130°)13.8 mphMostly Cloudy
3:50 PM89.0 °F73.0 °F50 %29.82 in6.0 miESE (120°)6.7 mphScattered Clouds
4:43 PM86.0 °F77.0 °F74 %29.79 in7.0 miSE (130°)11.5 mphMostly Cloudy
6:03 PM84.2 °F77.0 °F79 %29.78 in7.0 miSE (130°)11.5 mphMostly Cloudy
6:43 PM84.2 °F75.2 °F74 %29.79 in7.0 miEast (90°)11.5 mphMostly Cloudy
6:50 PM85.0 °F70.0 °F52 %29.80 in6.0 miEast (90°)6.7 mphScattered Clouds
7:51 PM82.4 °F75.2 °F79 %29.79 in7.0 miESE (120°)11.5 mphScattered Clouds
8:44 PM82.4 °F75.2 °F79 %29.81 in7.0 miESE (120°)5.8 mphScattered Clouds
9:50 PM81.0 °F74.0 °F72 %29.86 in5.0 miEast (90°)4.5 mphMostly Cloudy
Hourly data recorded from MMCM, located miles away from Chetumal - Airport, Quintana Roo







STORIES FROM OUR PARTNERS